Back to catalog

STARLINK-5830

AliveCommunicationsVLEO
NORAD 57065·PAYLOAD·🇺🇸 United States

Launched Jun 22, 2023 from Vandenberg Space Force Base

Loading…

Next Passes (next 24 hours)

TLE

FreshSource: CelesTrak SupGP

Epoch: Sep 14, 2026, 21:59 UTC

1 57065C 23088T   26257.91645833 -.00021276  00000+0 -77084-3 0  2570
2 57065  43.0000 125.4553 0001106 265.1873  12.8776 15.27580421    14

Track STARLINK-5830 in real time with AllMySat

Download on the App Store